Regional Weather Roundup
Issued by NWS

Home | Current Version | Previous Version | Text Only | Print | Product List | Glossary Off
Versions: 1 2 3 4 5 6 7 8 9 10 11 12 13 14 15 16 17 18 19 20 21 22 23 24 25 26 27 28 29 30 31 32 33 34 35 36 37 38 39 40 41 42 43 44 45 46 47 48 49 50

856
ASUS44 KJAN 211703
RWRMS

MISSISSIPPI HOURLY WEATHER ROUNDUP
NATIONAL WEATHER SERVICE JACKSON MS
1100 AM CST FRI NOV 21 2014

NOTE: "FAIR: INDICATES FEW OR NO CLOUDS BELOW 12,000 FEET WITH NO
SIGNIFICANT WEATHER AND/OR OBSTRUCTIONS TO VISIBILITY.

MSZ001>002-007>008-010>013-018>021-025>028-034>036-211800-
NORTHWEST MISSISSIPPI

CITY           SKY/WX    TMP DP  RH WIND       PRES   REMARKS
CLARKSDALE     CLOUDY    54  50  87 E5        30.34S
CLEVELAND      PTSUNNY   60  50  70 MISG      30.31F
GREENWOOD      SUNNY     67  46  47 S8        30.31F
GREENVILLE     CLOUDY    60  47  61 S6        30.29F
GRENADA        PTSUNNY   55  46  71 E7        30.34F
OLIVE BRANCH   CLOUDY    45  43  93 SE7       30.36S
OXFORD         FAIR      54  39  58 SE8       30.36F
TUNICA         MOSUNNY   52  45  76 E5        30.35S
$$

MSZ003>006-009-014>017-022>024-029>033-037>039-211800-
NORTHEAST MISSISSIPPI

CITY           SKY/WX    TMP DP  RH WIND       PRES   REMARKS
COLUMBUS AFB   NOT AVBL
CORINTH        CLOUDY    54  30  40 E8        30.37F
GOLDN TRIANGLE PTSUNNY   61  46  59 SE7       30.36F
STARKVILLE     CLOUDY    61  46  59 CALM      30.35F
TUPELO         CLOUDY    55  36  48 SE8       30.37F
$$

MSZ040-058-211800-
CENTRAL MISSISSIPPI

CITY           SKY/WX    TMP DP  RH WIND       PRES   REMARKS
JACKSON INTL   MOSUNNY   68  44  42 S12       30.31F
JACKSON HAWKNS SUNNY     67  43  41 SE10      30.31F
MERIDIAN KEY   SUNNY     74  43  32 CALM      30.36F
MERIDIAN NAS   MOSUNNY   63  44  50 NE5       30.37F
RAYMOND        FAIR      66  63  88 SE8       30.31F
VICKSBURG      CLOUDY    66  46  48 SE10      30.30F
$$

MSZ059>079-211800-
SOUTH MISSISSIPPI

CITY           SKY/WX    TMP DP  RH WIND       PRES   REMARKS
BROOKHAVEN     FAIR      64  46  52 SE9       30.33S
HATTIESBURG    SUNNY     63  47  55 S3        30.35F
MCCOMB         SUNNY     66  46  48 SE12      30.31F
NATCHEZ        CLOUDY    66  46  48 SE15      30.30S
PINE BELT      SUNNY     64  46  52 E9        30.35F
$$

MSZ080>082-211800-
COASTAL MISSISSIPPI

CITY           SKY/WX    TMP DP  RH WIND       PRES   REMARKS
BAY ST LOUIS   MOSUNNY   66  46  48 SE12      30.32S
BILOXI         SUNNY     68  49  51 E8        30.32F
PASCAGOULA     SUNNY     68  48  48 E12       30.33F
GULFPORT       SUNNY     67  49  52 E14       30.32F
$$



USA.gov is the U.S. government's official web portal to all federal, state and local government web resources and services.